"","year.","month.","day.","hour.","Air temperature.�C","Relative humidity (avg).%","Relative humidity (min).%","Relative humidity (max).%","Solar radiation received at surface.W m-2","Outgoing solar radiation.W m-2","Solar radiation received at bed.W m-2","Net radiation.W m-2","Bed heat flux.W m-2","Wind speed (average).ms-1","Wind speed (min).ms-1","Wind speed (max).ms-1","Precipitation.mm","Water temperature.�C","Bed temperature (5 cm).�C","Bed temperature (20 cm).�C","Bed temperature (40 cm).�C"
"1",2013,6,20,0,5.677,82.525,79.2,84.1,3.86875,3.9425,3.89925,-44.76,-0.06225,0.0395,0,0.875,0,13.2125,12.93,13.4575,NA
"2",2013,6,20,1,6.34825,81.925,80.7,84,3.96,4.01425,3.9655,-33.4125,-0.074,0.15625,0,1.5,0,12.68,12.425,13.1425,NA
"3",2013,6,20,2,5.96925,83.55,81.4,84.4,3.98375,4.0285,3.97525,-29.3,-0.078,0,0,0,0,12.265,12.025,12.855,NA
"4",2013,6,20,3,6.0455,85.025,84.3,85.6,5.178,4.0315,4.445,-23.5875,-0.078,0.01775,0,0.625,0,11.9325,11.7075,12.59,NA
"5",2013,6,20,4,6.6115,85.7,85,85.9,20.57,5.12125,10.765,-6.94725,-0.07475,0.01775,0,0.625,0,11.6875,11.4725,12.36,NA
"6",2013,6,20,5,8.24,84.6,82.3,86,49.37,7.05575,22.9525,15.5235,-0.066,0,0,0,0,11.565,11.3625,12.1825,NA
"7",2013,6,20,6,9.69,77.5,73.2,82.6,109.7375,12.25,49.8175,55.035,-0.04925,0.01725,0,0.875,0,11.6275,11.425,12.065,NA
"8",2013,6,20,7,10.6525,74.9,72.3,76.8,161.325,16.95,75.8025,51.7175,-0.02225,0.0455,0,1.375,0,11.91,11.6925,12.035,NA
"9",2013,6,20,8,11.52,71.1875,66.83,76.7,289.025,29.42,131.225,180.175,0.00775,0.19375,0,2.5,0,12.3725,12.1275,12.085,NA
"10",2013,6,20,9,12.9025,68.91,66.96,72.1,315.25,29.5275,138.025,212.675,0.0515,0.25375,0,1.875,0,13.0925,12.825,12.27,NA
"11",2013,6,20,10,14.395,63.565,60.15,71.8,356.025,32.3175,157.75,233.275,0.082,0.78575,0,2.625,0,13.765,13.4725,12.5025,NA
"12",2013,6,20,11,14.61,61.54,59.94,63.32,245.925,22.8325,106.125,143.925,0.0875,0.55325,0,2.5,0,14.1025,13.7975,12.7225,NA
"13",2013,6,20,12,14.6525,60.4575,57.58,62.48,226.475,21.0125,98.35,125.275,0.077,0.95725,0,2.875,0,14.1875,13.88,12.855,NA
"14",2013,6,20,13,15.8225,54.9475,51.05,60.21,358.3,31.1375,152.5,218.7,0.084,1.02,0,3.375,0,14.475,14.165,12.9875,NA
"15",2013,6,20,14,17.4975,48.9075,44.89,54.8,538.575,38.4475,202.65,328.675,0.1235,0.9285,0,2.75,0,15.24,14.9075,13.2525,NA
"16",2013,6,20,15,17.4,53.0375,47.09,55.02,337.55,26.965,132.2,192.35,0.13125,0.95375,0,3.125,0,15.61,15.275,13.5225,NA
"17",2013,6,20,16,17.305,54.5675,51.34,56.68,264.075,21.9225,97.6,147.85,0.1125,0.6455,0,3,0,15.6275,15.2825,13.67,NA
"18",2013,6,20,17,16.0225,62.38,55.84,67.49,161.625,15.655,68.2725,85.4775,0.0935,1.52325,0.25,3.625,0,15.4975,15.1625,13.7525,NA
"19",2013,6,20,18,14.4025,71.66,66.68,76.4,89.535,10.0175,41.045,11.47325,0.07175,1.36625,0,3.875,0,15.2575,14.91,13.7525,NA
"20",2013,6,20,19,13.2425,75.8,73.7,78.7,33.8,5.20275,15.46,-14.54575,0.05175,0.37125,0,2.25,0,14.955,14.6175,13.7,NA
"21",2013,6,20,20,12.6725,76.15,74.5,76.9,25.61,4.95975,12.165,-27.1625,0.0285,0.52075,0,2.625,0,14.5475,14.23,13.605,NA
"22",2013,6,20,21,11.56,80.425,76,81.8,5.722,3.55175,4.3,-29.2925,0.01375,0.008,0,0.875,0,14.1975,13.895,13.475,NA
"23",2013,6,20,22,10.4325,82.85,81.8,84.1,3.371,3.4405,3.36625,-25.0775,0.0015,0.0195,0,1.125,0,13.85,13.5525,13.3225,NA
"24",2013,6,20,23,11.03,81.125,80.5,82.5,3.3855,3.4965,3.38925,-23.5175,-0.00775,0.205,0,2.125,0,13.54,13.26,13.175,NA
"25",2013,6,21,0,11.6075,80.625,79.9,81.3,3.41325,3.534,3.3955,-13.9625,-0.0105,0.1085,0,1.375,0,13.33,13.065,13.035,NA
"26",2013,6,21,1,12.235,80.425,79.8,80.9,3.38325,3.488,3.373,-7.32675,-0.0105,0.18225,0,2.25,0,13.1725,12.915,12.92,NA
"27",2013,6,21,2,11.6,81.925,80.4,82.4,3.357,3.447,3.35625,-5.778,-0.0105,0.0395,0,1.25,0,13.0325,12.7775,12.8075,NA
"28",2013,6,21,3,11.175,84.125,82.3,85.2,3.74075,3.4755,3.54725,-11.7525,-0.0105,0.00025,0,0.125,0,12.9075,12.6525,12.71,NA
"29",2013,6,21,4,10.86,86.325,85.1,87,6.94125,3.80475,4.8265,-6.91675,-0.01125,0.001,0,0.125,0,12.785,12.53,12.615,NA
"30",2013,6,21,5,11.045,87.475,86.8,87.9,26.92,5.04225,14.31,3.21925,-0.0095,0.00025,0,0.125,0,12.71,12.46,12.5325,NA
"31",2013,6,21,6,11.225,88.275,87.7,88.5,52.085,6.78125,26.3725,14.4285,-0.00475,0.048,0,0.875,0,12.6975,12.445,12.4725,NA
"32",2013,6,21,7,11.6825,88.225,87.9,88.6,78.775,8.945,39.435,26.68,0.00725,0.0035,0,0.25,0,12.8175,12.5625,12.45,NA
"33",2013,6,21,8,12.2125,87.725,87.2,88.2,118.575,12.275,57.025,39.215,0.01675,0.004,0,0.375,0,12.95,12.69,12.4575,NA
"34",2013,6,21,9,12.8925,86.45,85.5,87.7,147.725,14.6475,70.5675,55.6975,0.03625,0,0,0,0,13.2575,12.9875,12.5275,NA
"35",2013,6,21,10,13.9675,83.925,80.5,86.3,422.45,38.95,201.1,212.975,0.0755,0.94125,0,2.625,0,13.99,13.685,12.6875,NA
"36",2013,6,21,11,14.925,80.325,78.3,81.9,428.4,40.085,198.625,303,0.1485,1.3445,0,3.5,0,15.2625,14.91,13.08,NA
"37",2013,6,21,12,15.3125,75.55,70.1,80.4,231.75,22.39,100.125,156.4,0.14175,0.95225,0,2.75,0,15.59,15.2375,13.4,NA
"38",2013,6,21,13,15.505,75.2,72.8,77.8,188.4,17.125,77.7475,120.1325,0.12525,0.80625,0,2.625,0,15.7025,15.3475,13.5975,NA
"39",2013,6,21,14,16.6425,67.2875,62.69,74.8,243.65,21.38,97.565,149.7,0.13475,0.702,0,4.25,0,16.0625,15.705,13.8125,NA
"40",2013,6,21,15,16.7325,68.7875,63.3,73.1,188.45,16.7075,67.985,137.575,0.1265,1.22675,0,3.25,0,16.1725,15.815,13.98,NA
"41",2013,6,21,16,17.785,60.345,56.92,65.77,295.975,22.16,88.875,169.3,0.12675,0.96375,0,2.75,0,16.3675,16.0025,14.125,NA
"42",2013,6,21,17,16.5875,65.2575,62.49,66.68,125.975,13.4375,54.8175,65.6475,0.11375,0.615,0,2.625,0,16.3175,15.96,14.2525,NA
"43",2013,6,21,18,16.1725,66.475,64.68,67.35,85.475,9.6275,34.95,36.1625,0.089,0.11025,0,1.625,0,16.0675,15.72,14.2625,NA
"44",2013,6,21,19,15.3075,65.69,64.46,67.32,56.285,6.65125,19.8075,6.09775,0.0665,0.493,0,2.5,0,15.7475,15.405,14.24,NA
"45",2013,6,21,20,13.6775,63.6475,61.6,66.72,30.9325,5.1485,12.255,-27.6,0.03775,0.2865,0,2.625,0,15.2525,14.9225,14.1175,NA
"46",2013,6,21,21,11.2575,72.0125,63.73,76.4,5.39125,3.54925,4.1565,-30.8125,0.0145,0,0,0,0,14.7675,14.4425,13.9475,NA
"47",2013,6,21,22,10.0925,76.175,72.7,78.8,3.3605,3.43325,3.3615,-23.44,5e-04,0.02775,0,1,0,14.36,14.05,13.7675,NA
"48",2013,6,21,23,9.855,77.625,74.3,79.6,3.41875,3.518,3.40275,-20.095,-0.0115,0.0445,0,1.25,0,13.9775,13.6825,13.585,NA
"49",2013,6,22,0,10.86,73.7175,69.8,79.1,3.45825,3.5735,3.4545,-24.8325,-0.02075,0.23725,0,1.75,0,13.62,13.345,13.405,12.4525
"50",2013,6,22,1,9.65,83.075,79.1,84.4,3.5105,3.63175,3.46875,-20.1625,-0.0255,0,0,0,0,13.3325,13.06,13.2225,12.39
"51",2013,6,22,2,10.21,80.55,77.9,84.9,3.538,3.69475,3.52625,-21.35,-0.029,0.31175,0,2,0,13.0725,12.815,13.05,12.33
"52",2013,6,22,3,10.7,79.35,77.7,80.5,4.02975,3.68525,3.7375,-22.5025,-0.03225,0.46825,0,3.125,0,12.83,12.585,12.8975,12.2725
"53",2013,6,22,4,9.9925,77.725,76.4,79.4,7.891,3.87325,5.35725,-22.0175,-0.04125,0.24825,0,2.625,0,12.51,12.275,12.7225,12.2075
"54",2013,6,22,5,9.7475,81.2,79.2,81.9,34.885,5.679,17.115,-1.5915,-0.0415,0.1635,0,2.625,0,12.3125,12.085,12.5575,12.1375
"55",2013,6,22,6,10.1275,81.925,80.6,83.4,107.2025,11.9225,49.45,32.795,-0.0305,0.3245,0,3.375,0,12.3125,12.0775,12.44,12.065
"56",2013,6,22,7,11.0575,79.075,76.5,81.3,215.775,20.5925,95.625,124,-0.00575,0.62425,0,3.625,0,12.575,12.3325,12.42,NA
"57",2013,6,22,8,11.41,79.425,77.5,81.6,175.05,16.58,77.505,98.125,0.0175,0.4025,0,2,0,12.8975,12.64,12.47,NA
"58",2013,6,22,9,12.22,75.125,71.2,80.2,258.325,22.89,109.95,183.275,0.031,0.76975,0,3.375,0,13.185,12.9125,12.53,NA
"59",2013,6,22,10,12.8475,73.525,69.99,78.6,332.625,28.57,149.375,160.3,0.0575,1.04925,0,3.75,0,13.675,13.3775,12.675,NA
"60",2013,6,22,11,14.12,66.2975,64.14,74.6,387.325,33.665,168.4,226.4,0.1035,0.52275,0,3.25,0,14.54,14.21,12.935,NA
"61",2013,6,22,12,12.825,77.065,62.51,83.2,178.35,16.5075,80.17,41.6375,0.09475,0.59625,0,2.5,0,14.6775,14.3425,13.1325,NA
"62",2013,6,22,13,12.6675,79.675,71.4,83.3,332.275,26.035,136.125,82.2525,0.0875,0.204,0,1.75,0,14.8475,14.4975,13.2475,NA
"63",2013,6,22,14,13.01,73.5575,65.01,82.2,242.515,18.2125,72.1775,56.14075,0.125,0.366,0,2.625,0,15.475,15.1225,13.5225,NA
"64",2013,6,22,15,11.4,83.15,78.2,86.3,352.8,19.84,151.725,74.92,0.07425,0.46275,0,1.875,0,15.0875,14.7525,13.53,NA
"65",2013,6,22,16,13.9225,71.475,67.24,79.1,472.7,24.56,74.195,72.7775,0.12025,0.224,0,1.625,0,15.755,15.41,13.73,NA
"66",2013,6,22,17,13.54,69.3925,66.6,75.7,315.275,21.0875,73.5675,33.055,0.1055,0.43725,0,4.625,0,15.7575,15.395,13.865,NA
"67",2013,6,22,18,13.07,69.37,63.63,73.1,193.3,14.01,44.4875,12.66325,0.084,0.1215,0,2,0,15.5925,15.2425,13.92,NA
"68",2013,6,22,19,12.355,72.05,69.64,75.6,97.325,8.74575,28.2375,6.17175,0.0615,0.00375,0,0.375,0,15.3075,14.965,13.8825,NA
"69",2013,6,22,20,11.3125,77.7,75.3,81,11.276,3.98775,6.08275,-9.0625,0.04225,0.06075,0,1.25,0,14.99,14.665,13.8075,NA
"70",2013,6,22,21,10.06,83.075,77,85.2,4.784,3.45175,4.05025,-11.2925,0.02475,0.00025,0,0.125,0,14.6275,14.315,13.69,NA
"71",2013,6,22,22,8.415,85.85,85,86.8,3.479,3.5955,3.4565,-17.3325,0.006,0.01625,0,1,0,14.205,13.91,13.545,NA
"72",2013,6,22,23,7.2605,87.35,86.3,87.6,3.6255,3.72075,3.63675,-17.085,-0.01675,0.2175,0,1.5,0,13.675,13.405,13.3525,NA
"73",2013,6,23,0,5.97775,87.475,87.2,87.9,3.7625,3.84475,3.753,-18.3975,-0.0425,0.16375,0,1.375,0,13.0425,12.7975,13.105,NA
"74",2013,6,23,1,5.37075,88.225,87.5,88.8,3.93,3.983,3.90875,-10.7775,-0.0645,0.19225,0,1.375,0,12.425,12.2025,12.815,NA
"75",2013,6,23,2,6.489,88.725,88.2,89,3.95,4.015,3.9675,-6.073,-0.06675,0.01475,0,1,0,12.0675,11.8525,12.57,NA
"76",2013,6,23,3,8.0675,89,88.7,89.5,4.305,4.00225,4.0855,-3.0125,-0.0645,0.08925,0,1.5,0,11.8125,11.6075,12.3675,NA
"77",2013,6,23,4,8.8775,89.175,88.8,89.6,16.7675,4.8185,8.89875,1.74225,-0.058,0.24275,0,3.125,0,11.67,11.4675,12.1925,NA
"78",2013,6,23,5,10.2325,86.45,85.2,89.2,37.575,5.9325,17.3625,4.71325,-0.04925,0.8525,0,4.25,0,11.6025,11.4075,12.0675,NA
"79",2013,6,23,6,10.6275,84.9,84.2,85.4,60.065,7.67025,27.465,11.69275,-0.041,0.694,0,3.875,0,11.58,11.38,11.965,NA
"80",2013,6,23,7,11.0225,82.875,81.4,85.6,150.45,15.2225,65.755,35.175,-0.022,1.78875,0,5.375,0,11.7675,11.55,11.92,NA
"81",2013,6,23,8,11.29,80.15,78.2,82.2,176.475,16.9275,73.1325,35.495,-0.00625,2.41875,0,5.75,0,11.975,11.745,11.9225,NA
"82",2013,6,23,9,11.7575,79,75.8,81.4,173.725,17.3525,70.41,32.1875,0.01125,2.23075,0.375,6.875,0,12.245,12,11.9725,NA
"83",2013,6,23,10,11.3825,81.575,80.4,83,150.175,13.86,57.4575,26.95925,0.012,2.13875,0.125,6.25,0,12.325,12.0625,11.9975,NA
"84",2013,6,23,11,11.4125,81.425,79.5,82.8,179.85,15.82,66.235,36.115,0.01075,2.3935,0,7.38,0,12.3475,12.0875,12.0075,NA
"85",2013,6,23,12,11.53,80.825,78.6,82.6,210.175,16.88,67.825,38.794,0.01725,2.7735,0.25,9.25,0,12.4625,12.195,12.0375,NA
"86",2013,6,23,13,11.33,79.3,77.1,82.5,300.825,23.49,87.895,53.3225,0.0335,2.716,0,9.13,0,12.7325,12.4575,12.125,NA
"87",2013,6,23,14,10.695,78.4,76.9,79.8,204.35,17.445,53.62,26.9975,0.03375,3.16975,0.5,9.13,0,12.805,12.5325,12.2675,NA
"88",2013,6,23,15,10.95,76.625,74.8,78.6,364.25,25.305,87.65,63.9475,0.04575,3.40425,0.75,9.88,0,13.0525,12.7475,12.3925,NA
"89",2013,6,23,16,10.7275,77.05,75.5,79.2,230.375,17.94,53.9825,34.1475,0.05,3.36025,0.625,8.25,0,13.2,12.91,12.5375,NA
"90",2013,6,23,17,10.2575,78.775,77.9,80.8,159.325,14.255,40.765,21.9075,0.04075,3.19675,0.75,10.13,0,13.165,12.89,12.5875,NA
"91",2013,6,23,18,10.0975,78.675,77.9,80.2,213.225,16.1525,39.8625,26.2675,0.025,2.928,0.5,8.25,0,12.9875,12.7225,12.55,NA
"92",2013,6,23,19,9.5875,78.4,77.2,79.6,138.425,12.1975,32.4725,8.65275,0.0085,3.272,0.25,9.38,0,12.715,12.47,12.425,NA
"93",2013,6,23,20,9.08,78.825,78.1,79.8,53.4075,6.952,16.3925,-7.6725,-0.016,3.123,0.5,8.25,0,12.28,12.0575,12.225,NA
"94",2013,6,23,21,8.7575,78.525,78,79.7,6.512,4.00175,4.4215,-19.625,-0.038,2.8935,0.5,9.38,0,11.7975,11.5925,12,NA
"95",2013,6,23,22,8.5325,78.675,78.1,79.1,3.84875,3.9245,3.831,-20.265,-0.05475,3.22675,0.625,7.88,0,11.335,11.155,11.76,NA
"96",2013,6,23,23,8.225,79.025,78.5,79.3,3.86,3.932,3.844,-15.6425,-0.0635,2.52175,0.25,11.38,0,10.9525,10.795,11.5325,NA
"97",2013,6,24,0,7.7875,77.8,76.6,80,3.86275,3.93375,3.86825,-17.635,-0.0675,2.712,0.5,6.5,0,10.6275,10.5025,11.345,NA
"98",2013,6,24,1,7.6825,76.1,74.7,78,3.87125,3.945,3.89775,-18.45,-0.07,2.3245,0,6.625,0,10.34,10.2275,11.1675,NA
"99",2013,6,24,2,7.5975,76.025,74.5,76.9,3.89525,3.9685,3.9055,-16.5925,-0.0725,1.908,0,6.375,0,10.07,9.965,10.985,NA
"100",2013,6,24,3,7.485,76.95,75.9,77.8,4.27175,3.972,3.94925,-14.66,-0.0695,1.59225,0,6,0,9.8875,9.7875,10.8375,NA
"101",2013,6,24,4,7.5525,76.65,75.4,77.4,9.81825,4.38525,5.30775,-11.775,-0.067,1.266,0,6.5,0,9.7325,9.63,10.7125,NA
"102",2013,6,24,5,7.5375,75.925,75.3,77.1,20.095,5.0425,8.1255,-9.44425,-0.0675,1.352,0,5.125,0,9.5525,9.4475,10.58,NA
"103",2013,6,24,6,7.8275,73.2,70.2,75.7,87.6825,10.6385,28.8675,8.635,-0.06375,1.4,0,6.875,0,9.4825,9.3575,10.4625,NA
"104",2013,6,24,7,8.5775,69.7825,67.15,71.7,270.55,28.2725,83.525,60.7125,-0.03575,2.008,0,6.625,0,9.8225,9.655,10.4375,NA
"105",2013,6,24,8,9.095,67.325,64.88,69.35,308.625,28.0775,97.62,88.5375,-0.0045,1.66475,0,4.875,0,10.31,10.1,10.5275,NA
"106",2013,6,24,9,9.34,67.7175,64.03,69.7,283.675,24.465,90.84,81.03,0.0235,1.66225,0,4.25,0,10.8525,10.6075,10.675,NA
"107",2013,6,24,10,9.735,67.6525,63.92,72.3,472.125,37.9125,161.3,256.25,0.049,1.89025,0,4.875,0,11.485,11.1825,10.85,NA
"108",2013,6,24,11,10.8325,63.8175,56.72,70.8,791.675,56.405,269.575,522.375,0.1125,1.987,0,5,0,12.7575,12.355,11.2025,NA
"109",2013,6,24,12,11.335,59.705,53.37,65.87,516.975,37.485,172.325,384.075,0.15625,1.7265,0,5.5,0,13.8,13.3775,11.6875,NA
"110",2013,6,24,13,11.43,61.01,56.81,66.68,504.375,32.5975,140.95,393.475,0.13025,2.01975,0,7,0,13.99,13.575,11.95,NA
"111",2013,6,24,14,11.2925,63.345,56.9,69.92,591.175,36.1825,144.85,424.375,0.156,1.942,0,8.13,0,14.7,14.2575,12.2575,NA
"112",2013,6,24,15,12.0725,57.53,53.76,62.11,530.075,31.7225,177.575,364.8,0.12575,1.68,0,4.75,0,14.645,14.2425,12.4375,NA
"113",2013,6,24,16,11.1775,66.38,56.83,71.3,374.925,24.7925,89.4,183,0.11525,1.65975,0,9.13,0,14.685,14.2825,12.5475,NA
"114",2013,6,24,17,10.7975,63.1325,58.37,68.63,165.65,15.0625,51.865,89.425,0.09225,1.2765,0,5.75,0,14.4975,14.115,12.605,NA
"115",2013,6,24,18,10.9025,58.9825,55.5,62.06,158.725,13.4425,43.6475,78.2725,0.074,1.28525,0,4.75,0,14.3025,13.94,12.6025,NA
"116",2013,6,24,19,10.6375,57.325,54.32,60.54,112.5325,9.83,24.0525,30.60825,0.059,1.537,0,5.625,0,14.0625,13.7125,12.59,NA
"117",2013,6,24,20,9.52,62.3775,56.35,68.08,37.675,5.72025,13.1,-21.2475,0.0305,0.814,0,3.625,0,13.6,13.2775,12.515,NA
"118",2013,6,24,21,7.091,75.3975,67.91,80,9.06975,4.1915,5.2205,-51.9675,0.008,0.14275,0,1.625,0,13.1275,12.8325,12.385,NA
"119",2013,6,24,22,4.34275,82.925,79.9,84.2,3.96025,3.96575,3.8975,-49.4175,-0.02125,0.26525,0,1.375,0,12.4875,12.22,12.19,NA
"120",2013,6,24,23,2.9675,84.65,83.3,85.6,3.97625,4.02225,3.9725,-43.6825,-0.0505,0.122,0,1,0,11.7825,11.5425,11.935,NA
"121",2013,6,25,0,3.892,84.625,83.7,86,3.98725,4.01625,3.98125,-30.6325,-0.0685,0.28125,0,2,0,11.1675,10.96,11.665,NA
"122",2013,6,25,1,3.10725,84.875,83.6,85.6,3.9555,3.97825,3.93925,-36.0875,-0.0825,0,0,0,0,10.615,10.425,11.3925,NA
"123",2013,6,25,2,3.15425,86.325,85.4,87,3.98075,3.94775,3.9285,-28.0075,-0.08675,0.00175,0,0.5,0,10.2125,10.035,11.15,NA
"124",2013,6,25,3,3.69925,87.15,86.1,87.7,5.7585,4.04475,4.57325,-21.6625,-0.0905,0.08925,0,1.5,0,9.85,9.685,10.9225,NA
"125",2013,6,25,4,4.65675,87.05,86.8,87.3,21.485,5.18275,10.264,-5.282,-0.0875,0,0,0,0,9.6025,9.45,10.715,NA
"126",2013,6,25,5,5.4235,87.025,86.5,87.4,56.3925,7.7205,23.825,16.4075,-0.07725,0.0215,0,0.625,0,9.51,9.3525,10.555,NA
"127",2013,6,25,6,7.11675,84.2,80.5,86.9,141.9,18.545,58.6,66.51,-0.05975,0.0145,0,0.875,0,9.6175,9.45,10.46,NA
"128",2013,6,25,7,9.4375,74.4,71.7,81.1,196.9,22.9175,79.115,149.625,-0.02425,0.04325,0,1.25,0,10.0675,9.8825,10.485,NA
"129",2013,6,25,8,10.705,68.39,62.07,73.6,263.45,24.59,103.1575,192.625,-0.0015,0.13675,0,2.25,0,10.475,10.2575,10.55,NA
"130",2013,6,25,9,11.6525,63.4475,60.92,66.49,347.525,30.665,134.525,226.925,0.04175,0.74075,0,2.5,0,11.235,10.98,10.7225,NA
"131",2013,6,25,10,11.155,66.15,63.28,68.45,315.875,26.9225,119.55,247.25,0.061,0.96825,0,3.5,0,11.7625,11.4825,10.925,NA
"132",2013,6,25,11,12.235,58.8925,55.76,64.73,416.6,34.495,160.4,339.3,0.09275,0.84975,0,2.375,0,12.5375,12.205,11.18,NA
"133",2013,6,25,12,13.2125,56.955,54.06,58.83,421.175,33.1225,156.5,271.25,0.10975,0.88425,0,2.375,0,13.1325,12.7725,11.445,NA
"134",2013,6,25,13,13.8625,53.565,50.08,57.54,482.55,37.93,180.7,300.125,0.1365,0.96075,0,3.25,0,13.8825,13.4875,11.7525,NA
"135",2013,6,25,14,13.9975,50.9225,47.78,54.67,363.7,29.27,133.3,247.825,0.1485,0.8325,0,2.75,0,14.43,14.025,12.075,NA
"136",2013,6,25,15,14.405,50.365,47.1,53.55,287.25,24.5625,109.775,169.525,0.139,0.62825,0,2.375,0,14.655,14.25,12.315,NA
"137",2013,6,25,16,14.5,51.9875,47.23,56.39,276.125,21.1675,89.9875,182.575,0.131,0.748,0,3.125,0,14.82,14.42,12.5025,NA
"138",2013,6,25,17,14.2775,55.8875,52.23,58.32,209,16.83,65.1675,97.5475,0.112,0.68275,0,2.875,0,14.7575,14.3675,12.62,NA
"139",2013,6,25,18,13.875,58.705,57.14,60.75,89.275,9.3,34.4775,40.285,0.0895,0.17775,0,1.5,0,14.555,14.18,12.67,NA
"140",2013,6,25,19,13.26,66.3425,59.98,72.6,44.3,5.956,17.7825,12.11125,0.07025,0.00875,0,0.5,0,14.2975,13.945,12.6625,NA
"141",2013,6,25,20,12.2375,68.3575,63.83,74.4,19.78,4.52075,9.21425,-3.68075,0.0525,0.43925,0,2.125,0,14.0225,13.6825,12.635,NA
"142",2013,6,25,21,10.6875,80.15,74.2,82.9,5.1525,3.6545,4.07975,-20.1525,0.035,0,0,0,0,13.6875,13.3675,12.5575,NA
"143",2013,6,25,22,8.8975,84.55,82.8,85.5,3.5665,3.68375,3.536,-30.1725,0.01625,0,0,0,0,13.2775,12.975,12.44,NA
"144",2013,6,25,23,7.37,86.45,85,87.4,3.74875,3.8385,3.744,-25.0275,-0.00475,0,0,0,0,12.81,12.5225,12.2875,NA
"145",2013,6,26,0,8.065,87.45,86.9,87.7,3.8665,3.93375,3.84875,-17.125,-0.012,0,0,0,0,12.505,12.2375,12.145,NA
"146",2013,6,26,1,7.288,87.45,86.9,88.1,3.884,3.9505,3.8815,-34.325,-0.02175,0,0,0,0,12.1525,11.8925,11.9925,NA
"147",2013,6,26,2,4.7735,87.75,87,88.6,3.93725,4.0035,3.93275,-41.64,-0.045,0,0,0,0,11.5825,11.34,11.7775,NA
"148",2013,6,26,3,5.23775,88.65,87.7,89.5,6.095,4.04375,4.72175,-23.855,-0.061,0.06525,0,1.25,0,11.0875,10.8675,11.545,NA
"149",2013,6,26,4,8.2975,86.175,80.7,90.2,11.2375,4.60575,6.49,-9.959,-0.058,0.61125,0,4.25,0,10.865,10.6625,11.36,NA
"150",2013,6,26,5,9.4175,80.775,77.8,83.1,58.0525,8.65875,26.2775,4.222,-0.0465,0.30025,0,2.375,0,10.8075,10.615,11.23,NA
"151",2013,6,26,6,10.38,73.1975,69.04,78.4,149.275,20.4,65.5275,42.995,-0.02875,0.64475,0,4.375,0,10.9425,10.735,11.1675,NA
"152",2013,6,26,7,11.24,67.09,64.77,71,298.9,39.1325,127.05,201.85,0.0055,1.4085,0,5.25,0,11.4075,11.1775,11.2025,NA
"153",2013,6,26,8,11.5775,63.7075,60.57,67.64,256.125,24.415,104.575,193.225,0.03775,1.045,0,3.125,0,11.9425,11.68,11.3225,NA
"154",2013,6,26,9,11.6675,57.6825,54.18,65.17,249.25,22.14,100.325,171.15,0.0415,1.3265,0,4.375,0,12.165,11.885,11.4175,NA
"155",2013,6,26,10,12.3675,55.015,51.98,58.21,331.65,29.46,134.8,240.825,0.05275,1.2525,0,5.25,0,12.495,12.2,11.53,NA
"156",2013,6,26,11,13.6675,52.8775,47.69,57.14,782.925,62.86,316.5,623.575,0.11325,1.84625,0,6.125,0,13.6625,13.2825,11.795,NA
"157",2013,6,26,12,12.33,57.0275,50.62,59.77,205.4,18.6025,79.8,145.1,0.14475,1.40575,0,4.875,0,14.35,13.9675,12.18,NA
"158",2013,6,26,13,12.5025,58.16,55.11,61.33,368.775,30.3775,144.025,273.1,0.1105,1.90425,0,4.875,0,14.295,13.92,12.325,NA
"159",2013,6,26,14,13.28,56.4375,52.91,59.5,575.675,39.0375,177.15,432.7,0.12975,1.8815,0,5.375,0,14.8225,14.43,12.5475,NA
"160",2013,6,26,15,13.2125,53.5975,50.48,58.08,382.4,25.96,149.45,260.675,0.13925,1.801,0,4.5,0,15.195,14.8,12.8025,NA
"161",2013,6,26,16,13.1375,53.9125,50.72,56.6,400,26.57,86.125,252.95,0.1045,1.67925,0,4.875,0,14.9925,14.5975,12.89,NA
"162",2013,6,26,17,12.93,53.025,50.31,57.24,345.4,24.02,86.35,202.925,0.118,1.7385,0,4.875,0,15.275,14.8625,13.04,NA
"163",2013,6,26,18,12.2575,54.9425,52.95,57.27,155.75,12.81,52.0825,93.3575,0.0935,1.8385,0,5.125,0,15.0475,14.655,13.115,NA
"164",2013,6,26,19,11.8425,58.225,55.25,61.03,81.2175,8.5475,26.6,26.4855,0.06175,1.27575,0,4.125,0,14.6475,14.275,13.085,NA
"165",2013,6,26,20,11.08,63.44,59.78,65.51,34.9825,5.55075,13.265,-11.1175,0.0435,0.66025,0,3,0,14.3,13.945,13.015,NA
"166",2013,6,26,21,9.9825,71.0175,64.69,76.1,6.52475,3.85875,4.53325,-25.2525,0.03125,0.1025,0,1.625,0,14.015,13.67,12.9225,NA
"167",2013,6,26,22,8.225,79.65,76.1,81.1,3.703,3.7885,3.692,-25.17,0.0175,0.07075,0,1.5,0,13.6825,13.3525,12.8225,NA
"168",2013,6,26,23,7.855,79.825,78.5,81.6,3.7925,3.88075,3.7775,-38.1775,0.00225,0.10825,0,0.875,0,13.29,12.9875,12.685,NA
"169",2013,6,27,0,7.15775,81.05,78.7,84.3,3.87225,3.9345,3.87,-50.6325,-0.02125,0.31875,0,2.25,0,12.745,12.4625,12.4925,NA
"170",2013,6,27,1,5.9955,82.7,80.3,84,3.9475,3.99425,3.92375,-42.8675,-0.04025,0.3185,0,1.625,0,12.21,11.9525,12.27,NA
"171",2013,6,27,2,5.678,83.45,82.7,84,3.9805,4.0135,3.96475,-31.1725,-0.05775,0.2325,0,1.625,0,11.67,11.4375,12.02,NA
"172",2013,6,27,3,5.38875,84.75,83.8,85.4,5.38,4.037,4.444,-23.4725,-0.06325,0.1575,0,1.125,0,11.2925,11.075,11.79,NA
"173",2013,6,27,4,5.83575,85.5,84.9,85.9,27.0625,5.822,13.3175,-5.9795,-0.065,0.01725,0,1,0,10.995,10.785,11.5775,NA
"174",2013,6,27,5,7.569,83.7,81.3,86,91.575,10.7525,41.61,43.535,-0.05275,0.20875,0,1.25,0,10.9425,10.74,11.4275,NA
"175",2013,6,27,6,9.58,77.1,73.9,81.2,146.375,15.2325,63.105,81.805,-0.03,0.01525,0,0.625,0,11.1325,10.925,11.3625,NA
"176",2013,6,27,7,10.975,71.5225,68.16,74.1,172.175,16.665,73.75,121.425,-0.003,0,0,0,0,11.4825,11.2575,11.3875,NA
"177",2013,6,27,8,12.2375,64.055,58.58,72.3,219.8,20.0075,89.675,155.225,0.01975,0.11925,0,1.375,0,11.8725,11.6275,11.4575,NA
"178",2013,6,27,9,13.98,55.0925,51.64,61.52,306.375,28.5925,127.675,208.95,0.04775,0.17925,0,1.75,0,12.415,12.1525,11.5975,NA
"179",2013,6,27,10,15.0075,52.5875,47.31,57.31,387.4,34.04,159.975,260.7,0.08175,0.2735,0,1.75,0,13.1275,12.8275,11.8175,NA
"180",2013,6,27,11,15.3425,55.785,51.02,58.61,389.8,34.385,158.175,266.2,0.11475,0.50175,0,2.25,0,13.8875,13.5575,12.105,NA
"181",2013,6,27,12,15.7875,56.5625,53.88,58.54,414.85,35.6875,168.075,276.15,0.14125,0.49425,0,2.375,0,14.6475,14.285,12.4275,NA
"182",2013,6,27,13,15.135,63.5775,57.08,65.7,164.75,16.21,68.6675,122.65,0.12875,0.971,0,2.75,0,14.7925,14.43,12.6725,NA
"183",2013,6,27,14,14.8875,64.965,63.3,66.78,219.875,20.5425,91,166.05,0.10925,0.8835,0,3.25,0,14.8125,14.45,12.81,NA
"184",2013,6,27,15,15.5325,64.4125,62.62,66.24,168.475,16.4725,67.815,103.425,0.109,0.26825,0,2.375,0,14.9675,14.6075,12.9625,NA
"185",2013,6,27,16,15.76,64.5275,63,66.48,202.25,18.5375,83.475,136.25,0.10925,0.18975,0,2.125,0,15.1375,14.7725,13.0925,NA
"186",2013,6,27,17,15.535,67,64.31,69.95,122.9,12.4425,52.245,71.9,0.107,0.21625,0,2.5,0,15.24,14.87,13.2225,NA
"187",2013,6,27,18,14.705,76,69.62,78.7,87.725,9.5935,37.365,32.82,0.0955,0.15075,0,1.125,0,15.1975,14.83,13.2975,NA
"188",2013,6,27,19,14.1775,79.05,78,80.2,31.4075,5.25325,14.2275,10.31,0.07775,0.0075,0,0.75,0,15,14.6475,13.32,NA
"189",2013,6,27,20,14.1175,80,79.3,80.5,28.6925,5.11025,12.86175,10.425,0.06625,0.01275,0,0.625,0,14.84,14.495,13.31,NA
"190",2013,6,27,21,13.3275,83.35,80.1,84.5,4.681,3.4045,4.041,-12.285,0.05475,0.04775,0,1.375,0,14.6425,14.305,13.2775,NA
"191",2013,6,27,22,12.9325,85.325,84.5,85.7,3.3415,3.37675,3.3395,-8.995,0.04375,0.01225,0,0.75,0,14.4375,14.115,13.2325,NA
"192",2013,6,27,23,12.785,85.55,85.1,85.9,3.34725,3.39775,3.341,-8.7525,0.036,0,0,0,0,14.2525,13.94,13.1775,NA
"193",2013,6,28,0,12.5025,83.1,82,85.9,3.352,3.41825,3.3475,-22.13,0.02575,0.14975,0,1.5,0,14.0025,13.7,13.095,NA
"194",2013,6,28,1,11.7025,83.95,81.9,84.9,3.382,3.462,3.368,-12.8475,0.013,0.00775,0,0.75,0,13.7175,13.4225,12.985,NA